Time,TemperatureF,DewpointF,PressureIn,WindDirection,WindDirectionDegrees,WindSpeedMPH,WindSpeedGustMPH,Humidity,HourlyPrecipIn,Conditions,Clouds,dailyrainin,SoftwareType,DateUTC
2013-04-22 00:14:00,36.7,9.6,30.53,North,0,0.0,0.0,32,0.00,,CLR,0.00,VWS V14.00,2013-04-22 04:14:00,
2013-04-22 00:29:00,36.7,9.6,30.56,North,0,0.0,0.0,32,0.00,,CLR,0.00,VWS V14.00,2013-04-22 04:29:00,
2013-04-22 00:44:00,36.5,10.1,30.53,North,0,0.0,0.0,33,0.00,,CLR,0.00,VWS V14.00,2013-04-22 04:44:00,
2013-04-22 00:59:00,36.3,10.0,30.53,North,0,0.0,0.0,33,0.00,,CLR,0.00,VWS V14.00,2013-04-22 04:59:00,
2013-04-22 01:14:00,36.1,10.5,30.53,North,0,0.0,0.0,34,0.00,,CLR,0.00,VWS V14.00,2013-04-22 05:14:00,
2013-04-22 01:29:00,36.1,11.1,30.53,North,0,0.0,0.0,35,0.00,,CLR,0.00,VWS V14.00,2013-04-22 05:29:00,
2013-04-22 01:44:00,36.1,12.4,30.53,North,0,0.0,0.0,37,0.00,,CLR,0.00,VWS V14.00,2013-04-22 05:44:00,
2013-04-22 01:59:00,36.1,12.4,30.53,North,0,0.0,0.0,37,0.00,,CLR,0.00,VWS V14.00,2013-04-22 05:59:00,
2013-04-22 02:14:00,36.0,13.4,30.53,North,0,0.0,0.0,39,0.00,,CLR,0.00,VWS V14.00,2013-04-22 06:14:00,
2013-04-22 02:29:00,36.0,14.0,30.53,North,0,0.0,0.0,40,0.00,,CLR,0.00,VWS V14.00,2013-04-22 06:29:00,
2013-04-22 02:44:00,35.6,13.1,30.53,North,0,0.0,0.0,39,0.00,,CLR,0.00,VWS V14.00,2013-04-22 06:44:00,
2013-04-22 02:59:00,35.2,14.5,30.53,North,0,0.0,0.0,42,0.00,,CLR,0.00,VWS V14.00,2013-04-22 06:59:00,
2013-04-22 03:14:00,34.9,16.2,30.53,North,0,0.0,0.0,46,0.00,,CLR,0.00,VWS V14.00,2013-04-22 07:14:00,
2013-04-22 03:29:00,35.1,15.9,30.53,North,0,0.0,0.0,45,0.00,,CLR,0.00,VWS V14.00,2013-04-22 07:29:00,
2013-04-22 03:44:00,35.4,16.7,30.53,North,0,0.0,0.0,46,0.00,,CLR,0.00,VWS V14.00,2013-04-22 07:44:00,
2013-04-22 04:00:00,38.5,16.3,30.53,North,0,0.0,0.0,40,0.00,,CLR,0.00,VWS V14.00,2013-04-22 08:00:00,
2013-04-22 04:14:00,40.1,13.3,30.53,North,0,0.0,0.0,33,0.00,,CLR,0.00,VWS V14.00,2013-04-22 08:14:00,
2013-04-22 04:29:00,39.9,13.2,30.53,North,0,0.0,0.0,33,0.00,,CLR,0.00,VWS V14.00,2013-04-22 08:29:00,
2013-04-22 04:45:00,39.6,12.9,30.53,North,0,0.0,0.0,33,0.00,,CLR,0.00,VWS V14.00,2013-04-22 08:45:00,
2013-04-22 05:00:00,39.2,12.5,30.53,North,0,0.0,0.0,33,0.00,,CLR,0.00,VWS V14.00,2013-04-22 09:00:00,
2013-04-22 05:15:00,38.1,12.2,30.53,North,0,0.0,0.0,34,0.00,,CLR,0.00,VWS V14.00,2013-04-22 09:15:00,
2013-04-22 05:30:00,37.6,12.4,30.53,North,0,0.0,0.0,35,0.00,,CLR,0.00,VWS V14.00,2013-04-22 09:30:00,
2013-04-22 05:45:00,36.9,11.8,30.53,North,0,0.0,0.0,35,0.00,,CLR,0.00,VWS V14.00,2013-04-22 09:45:00,
2013-04-22 06:00:00,36.3,11.9,30.53,North,0,0.0,0.0,36,0.00,,CLR,0.00,VWS V14.00,2013-04-22 10:00:00,
2013-04-22 06:15:00,35.8,13.3,30.53,North,0,0.0,0.0,39,0.00,,CLR,0.00,VWS V14.00,2013-04-22 10:15:00,
2013-04-22 06:30:00,35.4,14.1,30.53,North,0,0.0,0.0,41,0.00,,CLR,0.00,VWS V14.00,2013-04-22 10:30:00,
2013-04-22 06:45:00,36.0,15.6,30.56,North,0,0.0,0.0,43,0.00,,CLR,0.00,VWS V14.00,2013-04-22 10:45:00,
2013-04-22 07:00:00,36.7,16.3,30.56,North,0,0.0,0.0,43,0.00,,CLR,0.00,VWS V14.00,2013-04-22 11:00:00,
2013-04-22 07:15:00,37.9,16.9,30.56,North,0,0.0,0.0,42,0.00,,CLR,0.00,VWS V14.00,2013-04-22 11:15:00,
2013-04-22 07:30:00,39.4,18.2,30.56,North,0,0.0,0.0,42,0.00,,CLR,0.00,VWS V14.00,2013-04-22 11:30:00,
2013-04-22 07:45:00,40.1,17.1,30.56,North,0,0.0,0.0,39,0.00,,CLR,0.00,VWS V14.00,2013-04-22 11:45:00,
2013-04-22 08:00:00,42.4,18.6,30.56,North,0,0.0,0.0,38,0.00,,CLR,0.00,VWS V14.00,2013-04-22 12:00:00,
2013-04-22 08:15:00,44.8,14.5,30.56,North,0,0.0,0.0,29,0.00,,CLR,0.00,VWS V14.00,2013-04-22 12:15:00,
2013-04-22 08:31:00,46.0,14.8,30.56,North,0,0.0,0.0,28,0.00,,CLR,0.00,VWS V14.00,2013-04-22 12:31:00,
2013-04-22 08:45:00,47.1,14.9,30.56,North,0,0.0,0.0,27,0.00,,CLR,0.00,VWS V14.00,2013-04-22 12:45:00,
2013-04-22 09:00:00,47.5,10.6,30.56,North,0,0.0,0.0,22,0.00,,CLR,0.00,VWS V14.00,2013-04-22 13:00:00,
2013-04-22 09:15:00,47.7,10.7,30.56,North,0,0.0,0.0,22,0.00,,CLR,0.00,VWS V14.00,2013-04-22 13:15:00,
2013-04-22 09:30:00,48.0,7.7,30.56,North,0,0.0,0.0,19,0.00,,CLR,0.00,VWS V14.00,2013-04-22 13:30:00,
2013-04-22 09:46:00,48.6,8.2,30.56,North,0,0.0,0.0,19,0.00,,CLR,0.00,VWS V14.00,2013-04-22 13:46:00,
2013-04-22 10:00:00,48.2,7.9,30.56,North,0,0.0,0.0,19,0.00,,CLR,0.00,VWS V14.00,2013-04-22 14:00:00,
2013-04-22 10:15:00,49.6,9.1,30.56,North,0,0.0,0.0,19,0.00,,CLR,0.00,VWS V14.00,2013-04-22 14:15:00,
2013-04-22 10:30:00,50.4,9.7,30.56,North,0,0.0,0.0,19,0.00,,CLR,0.00,VWS V14.00,2013-04-22 14:30:00,
2013-04-22 10:44:00,50.2,9.5,30.56,North,0,0.0,0.0,19,0.00,,CLR,0.00,VWS V14.00,2013-04-22 14:44:00,
2013-04-22 11:00:00,50.7,10.0,30.56,North,0,0.0,0.0,19,0.00,,CLR,0.00,VWS V14.00,2013-04-22 15:00:00,
2013-04-22 11:14:00,51.3,10.4,30.56,North,0,0.0,0.0,19,0.00,,CLR,0.00,VWS V14.00,2013-04-22 15:14:00,
2013-04-22 11:29:00,52.0,9.8,30.53,North,0,0.0,0.0,18,0.00,,CLR,0.00,VWS V14.00,2013-04-22 15:29:00,
2013-04-22 11:44:00,52.5,10.2,30.53,North,0,0.0,0.0,18,0.00,,CLR,0.00,VWS V14.00,2013-04-22 15:44:00,
2013-04-22 11:59:00,55.4,11.3,30.53,North,0,0.0,0.0,17,0.00,,CLR,0.00,VWS V14.00,2013-04-22 15:59:00,
2013-04-22 12:14:00,56.5,12.2,30.53,North,0,0.0,0.0,17,0.00,,CLR,0.00,VWS V14.00,2013-04-22 16:14:00,
2013-04-22 12:29:00,57.0,12.7,30.50,North,0,0.0,0.0,17,0.00,,CLR,0.00,VWS V14.00,2013-04-22 16:29:00,
2013-04-22 12:44:00,58.3,13.7,30.50,North,0,0.0,0.0,17,0.00,,CLR,0.00,VWS V14.00,2013-04-22 16:44:00,
2013-04-22 12:59:00,57.9,13.4,30.50,North,0,0.0,0.0,17,0.00,,CLR,0.00,VWS V14.00,2013-04-22 16:59:00,
2013-04-22 13:14:00,57.0,12.7,30.50,North,0,0.0,0.0,17,0.00,,CLR,0.00,VWS V14.00,2013-04-22 17:14:00,
2013-04-22 13:29:00,58.6,14.0,30.47,North,0,0.0,0.0,17,0.00,,CLR,0.00,VWS V14.00,2013-04-22 17:29:00,
2013-04-22 13:44:00,56.3,12.1,30.47,North,0,0.0,0.0,17,0.00,,CLR,0.00,VWS V14.00,2013-04-22 17:44:00,
2013-04-22 13:59:00,56.5,12.2,30.47,North,0,0.0,0.0,17,0.00,,CLR,0.00,VWS V14.00,2013-04-22 17:59:00,
2013-04-22 14:14:00,59.7,14.9,30.47,North,0,0.0,0.0,17,0.00,,CLR,0.00,VWS V14.00,2013-04-22 18:14:00,
2013-04-22 14:29:00,62.6,15.8,30.44,North,0,0.0,0.0,16,0.00,,CLR,0.00,VWS V14.00,2013-04-22 18:29:00,
2013-04-22 14:44:00,57.7,13.2,30.44,North,0,0.0,0.0,17,0.00,,CLR,0.00,VWS V14.00,2013-04-22 18:44:00,
2013-04-22 14:59:00,59.9,15.0,30.44,North,0,0.0,0.0,17,0.00,,CLR,0.00,VWS V14.00,2013-04-22 18:59:00,
2013-04-22 15:14:00,59.2,14.4,30.44,North,0,0.0,0.0,17,0.00,,CLR,0.00,VWS V14.00,2013-04-22 19:14:00,
2013-04-22 15:29:00,58.1,13.5,30.44,North,0,0.0,0.0,17,0.00,,CLR,0.00,VWS V14.00,2013-04-22 19:29:00,
2013-04-22 15:44:00,59.9,15.0,30.41,North,0,0.0,0.0,17,0.00,,CLR,0.00,VWS V14.00,2013-04-22 19:44:00,
2013-04-22 15:59:00,58.8,14.1,30.41,North,0,0.0,0.0,17,0.00,,CLR,0.00,VWS V14.00,2013-04-22 19:59:00,
2013-04-22 16:14:00,58.3,13.7,30.41,North,0,0.0,0.0,17,0.00,,CLR,0.00,VWS V14.00,2013-04-22 20:14:00,
2013-04-22 16:29:00,60.6,15.6,30.41,North,0,0.0,0.0,17,0.00,,CLR,0.00,VWS V14.00,2013-04-22 20:29:00,
2013-04-22 16:45:00,58.1,13.5,30.41,North,0,0.0,0.0,17,0.00,,CLR,0.00,VWS V14.00,2013-04-22 20:45:00,
2013-04-22 16:59:00,59.5,14.7,30.41,North,0,0.0,0.0,17,0.00,,CLR,0.00,VWS V14.00,2013-04-22 20:59:00,
2013-04-22 17:14:00,58.8,14.1,30.41,North,0,0.0,0.0,17,0.00,,CLR,0.00,VWS V14.00,2013-04-22 21:14:00,
2013-04-22 17:30:00,59.2,14.4,30.41,North,0,0.0,0.0,17,0.00,,CLR,0.00,VWS V14.00,2013-04-22 21:30:00,
2013-04-22 17:45:00,57.2,12.8,30.38,North,0,0.0,0.0,17,0.00,,CLR,0.00,VWS V14.00,2013-04-22 21:45:00,
2013-04-22 18:00:00,57.6,13.1,30.38,North,0,0.0,0.0,17,0.00,,CLR,0.00,VWS V14.00,2013-04-22 22:00:00,
2013-04-22 18:15:00,57.0,12.7,30.38,North,0,0.0,0.0,17,0.00,,CLR,0.00,VWS V14.00,2013-04-22 22:15:00,
2013-04-22 18:30:00,56.3,12.1,30.38,North,0,0.0,0.0,17,0.00,,CLR,0.00,VWS V14.00,2013-04-22 22:30:00,
2013-04-22 18:45:00,55.9,11.8,30.38,North,0,0.0,0.0,17,0.00,,CLR,0.00,VWS V14.00,2013-04-22 22:45:00,
2013-04-22 19:00:00,54.7,12.0,30.38,North,0,0.0,0.0,18,0.00,,CLR,0.00,VWS V14.00,2013-04-22 23:00:00,
2013-04-22 19:15:00,53.8,11.3,30.38,North,0,0.0,0.0,18,0.00,,CLR,0.00,VWS V14.00,2013-04-22 23:15:00,
2013-04-22 19:30:00,53.1,10.7,30.38,North,0,0.0,0.0,18,0.00,,CLR,0.00,VWS V14.00,2013-04-22 23:30:00,
2013-04-22 19:45:00,52.2,10.0,30.38,North,0,0.0,0.0,18,0.00,,CLR,0.00,VWS V14.00,2013-04-22 23:45:00,
2013-04-22 20:00:00,51.6,10.7,30.38,North,0,0.0,0.0,19,0.00,,CLR,0.00,VWS V14.00,2013-04-23 00:00:00,
2013-04-22 20:15:00,50.4,9.7,30.38,North,0,0.0,0.0,19,0.00,,CLR,0.00,VWS V14.00,2013-04-23 00:15:00,
2013-04-22 20:30:00,50.0,9.4,30.41,North,0,0.0,0.0,19,0.00,,CLR,0.00,VWS V14.00,2013-04-23 00:30:00,
2013-04-22 20:44:00,49.5,8.9,30.41,North,0,0.0,0.0,19,0.00,,CLR,0.00,VWS V14.00,2013-04-23 00:44:00,
2013-04-22 20:59:00,48.6,8.2,30.41,North,0,0.0,0.0,19,0.00,,CLR,0.00,VWS V14.00,2013-04-23 00:59:00,
2013-04-22 21:14:00,48.2,7.9,30.41,North,0,0.0,0.0,19,0.00,,CLR,0.00,VWS V14.00,2013-04-23 01:14:00,
2013-04-22 21:29:00,47.8,7.6,30.44,North,0,0.0,0.0,19,0.00,,CLR,0.00,VWS V14.00,2013-04-23 01:29:00,
2013-04-22 21:44:00,47.1,7.0,30.44,North,0,0.0,0.0,19,0.00,,CLR,0.00,VWS V14.00,2013-04-23 01:44:00,
2013-04-22 21:59:00,46.6,6.5,30.44,North,0,0.0,0.0,19,0.00,,CLR,0.00,VWS V14.00,2013-04-23 01:59:00,
2013-04-22 22:14:00,45.9,7.1,30.44,North,0,0.0,0.0,20,0.00,,CLR,0.00,VWS V14.00,2013-04-23 02:14:00,
2013-04-22 22:29:00,45.1,6.5,30.44,North,0,0.0,0.0,20,0.00,,CLR,0.00,VWS V14.00,2013-04-23 02:29:00,
2013-04-22 22:44:00,45.1,6.5,30.44,North,0,0.0,0.0,20,0.00,,CLR,0.00,VWS V14.00,2013-04-23 02:44:00,
2013-04-22 22:59:00,45.1,6.5,30.44,North,0,0.0,0.0,20,0.00,,CLR,0.00,VWS V14.00,2013-04-23 02:59:00,
2013-04-22 23:14:00,45.0,6.3,30.41,North,0,0.0,0.0,20,0.00,,CLR,0.00,VWS V14.00,2013-04-23 03:14:00,
2013-04-22 23:29:00,44.4,5.9,30.41,North,0,0.0,0.0,20,0.00,,CLR,0.00,VWS V14.00,2013-04-23 03:29:00,
2013-04-22 23:44:00,43.9,5.4,30.41,North,0,0.0,0.0,20,0.00,,CLR,0.00,VWS V14.00,2013-04-23 03:44:00,
2013-04-22 23:59:00,43.3,5.0,30.41,North,0,0.0,0.0,20,0.00,,CLR,0.00,VWS V14.00,2013-04-23 03:59:00,